EDT,Max TemperatureF,Mean TemperatureF,Min TemperatureF,Max Dew PointF,MeanDew PointF,Min DewpointF,Max Humidity, Mean Humidity, Min Humidity, Max Sea Level PressureIn, Mean Sea Level PressureIn, Min Sea Level PressureIn, Max VisibilityMiles, Mean VisibilityMiles, Min VisibilityMiles, Max Wind SpeedMPH, Mean Wind SpeedMPH, Max Gust SpeedMPH,PrecipitationIn, CloudCover, Events, WindDirDegrees
2013-3-1,33,32,30,30,28,25,93,84,70,29.66,29.61,29.53,10,9,2,15,10,23,0.00,8,,360
2013-3-2,39,34,30,28,27,25,93,80,56,29.65,29.62,29.60,10,7,2,15,6,22,0.00,8,,327
2013-3-3,39,34,30,28,27,23,93,75,56,29.61,29.56,29.52,10,10,4,12,6,20,0.00,8,,317
2013-3-4,33,32,30,25,21,19,80,67,60,29.70,29.56,29.51,10,9,2,20,11,29,0.00,8,,316
2013-3-5,41,36,30,32,28,21,81,72,64,30.11,29.94,29.70,10,10,5,21,11,29,0.00,8,,7
2013-3-6,35,32,30,30,27,21,87,76,60,30.25,30.20,30.11,10,9,1,17,11,34,0.00,8,,51
2013-3-7,33,32,30,21,21,19,69,63,56,30.21,30.15,30.09,10,10,9,23,16,31,0.00,8,,26
2013-3-8,44,36,28,25,19,16,86,52,31,30.21,30.10,30.04,10,10,3,25,19,36,0.00,3,,19
2013-3-9,48,36,24,27,20,16,93,54,27,30.38,30.26,30.19,10,10,9,17,9,23,0.00,0,,34
2013-3-10,41,30,19,28,24,14,93,75,52,30.43,30.35,30.28,10,10,10,12,3,16,0.00,1,,176
2013-3-11,44,38,33,36,31,27,93,78,49,30.30,30.20,30.13,10,10,10,13,8,17,0.00,4,,177
2013-3-12,46,42,37,46,41,36,100,93,87,30.14,29.98,29.72,10,5,0,18,8,25,0.00,8,,165
2013-3-13,46,38,30,46,33,25,100,74,49,29.74,29.70,29.66,10,9,0,14,7,20,0.00,7,,331
2013-3-14,37,28,19,27,17,1,93,63,41,29.75,29.67,29.61,10,10,10,20,4,28,0.00,6,,313
2013-3-15,33,24,15,21,7,0,80,48,30,29.78,29.71,29.59,10,10,10,17,10,26,0.00,4,,299
2013-3-16,33,27,21,19,11,7,69,51,32,29.80,29.73,29.60,10,10,10,13,7,21,0.00,2,,323
2013-3-17,,,,,,,,,,,,,,,,,,,,,,
2013-3-18,35,26,17,18,4,-2,64,37,20,30.42,30.34,30.25,10,10,10,8,5,,0.00,0,,223
2013-3-19,30,26,23,27,22,18,93,83,64,30.25,29.98,29.68,10,3,0,17,7,23,0.00,8,,53
2013-3-20,35,25,15,25,18,10,93,71,44,29.69,29.64,29.60,10,9,1,15,9,23,0.00,6,,273
2013-3-21,39,30,21,19,15,7,86,58,26,29.74,29.67,29.59,10,10,10,13,7,,0.00,0,,204
2013-3-22,37,28,19,18,14,10,86,55,35,29.64,29.61,29.58,10,10,10,14,4,21,0.00,4,,314
2013-3-23,37,30,23,21,17,12,63,55,45,29.66,29.61,29.55,10,10,10,20,10,30,0.00,3,,296
2013-3-24,42,36,28,23,21,19,75,56,39,29.78,29.73,29.66,10,10,10,22,8,28,0.00,3,,318
2013-3-25,42,32,21,28,25,19,93,73,53,29.77,29.72,29.65,10,10,10,15,5,24,0.00,4,,26
2013-3-26,,,,,,,,,,,,,,,,,,,,,,
2013-3-27,46,36,26,34,30,21,93,70,43,29.87,29.78,29.73,10,10,10,21,9,26,0.00,7,,331
2013-3-28,48,40,32,36,31,25,93,73,43,29.98,29.92,29.87,10,10,10,12,4,,0.00,7,,331
2013-3-29,51,42,33,34,28,23,87,58,38,30.01,29.98,29.95,10,10,10,16,5,25,0.00,5,,318
2013-3-30,53,40,26,30,19,10,93,51,19,30.09,30.02,29.98,10,10,10,13,3,20,0.00,2,,318
2013-3-31,50,36,21,36,22,16,86,55,26,30.14,30.02,29.83,10,10,10,15,4,21,0.00,1,,163